Location: ?????
(44.4284°N, 135.2222°E)
Time: 10:20:58
(UTC+00:00)

DELTA 2 R/B (1) - Pass Details

Date: 18 January 2026
Orbit: 786 x 800 km, 39.6° (Epoch: 10 February)

Event Time Altitude Azimuth Distance (km) Brightness Sun altitude
Rises 08:15:36 0° 221° (SW) 3,280 8.1 -5.1°
Reaches altitude 10° 08:18:26 10° 208° (SSW) 2,350 6.9 -5.6°
Maximum altitude 08:22:56 26° 154° (SSE) 1,520 5.0 -6.3°
Drops below altitude 10° 08:27:26 10° 99° (E) 2,348 5.5 -7.1°
Enters shadow 08:28:35 - 93° (E) 2,710 5.8 -7.3°
